Printer-friendly version

IAU Minor Planet Center

Minor Planet Center

MPEC 2006-F55 : 2002 WZ2

The following Minor Planet Electronic Circular may be linked-to from your own Web pages, but must not otherwise be redistributed electronically.


Read MPEC 2006-F54 Read MPEC 2006-F56


M.P.E.C. 2006-F55                                Issued 2006 Mar. 30, 17:22 UT

     The Minor Planet Electronic Circulars contain information on unusual
         minor planets and routine data on comets.  They are published
   on behalf of Commission 20 of the International Astronomical Union by the
          Minor Planet Center, Smithsonian Astrophysical Observatory,
                          Cambridge, MA 02138, U.S.A.

                  Supported in part by the Brinson Foundation
                  Supported in part by the TABASGO Foundation
             Prepared using the Tamkin Foundation Computer Network

                              MPC@CFA.HARVARD.EDU
          URL http://cfa-www.harvard.edu/iau/mpc.html  ISSN 1523-6714

                                   2002 WZ2

                           Revision to MPEC 2002-W38

Additional Observations:
     K02W02Z  C2006 03 29.40549 06 51 10.49 -40 27 22.4          21.5 R EF055474
     K02W02Z  C2006 03 29.41045 06 51 10.36 -40 27 17.1          21.4 R EF055474
     K02W02Z  C2006 03 29.41571 06 51 10.17 -40 27 11.2          21.3 R EF055474
     K02W02Z  C2006 03 30.34937 06 50 43.87 -40 10 00.9          20.6 R EF055474
     K02W02Z  C2006 03 30.35819 06 50 43.63 -40 09 50.7          21.4 R EF055474
     K02W02Z  C2006 03 30.36200 06 50 43.48 -40 09 46.8          21.3 R EF055474
     K02W02Z IC2006 03 30.37200 06 50 43.24 -40 09 35.7                 EF055474

Observer details:
474 Mount John Observatory, Lake Tekapo.  Observer A. C. Gilmore.  1.0-m f/7.7
    reflector + CCD.

First and last observations above in comparison with prediction:
Residuals in seconds of arc (or two decimals in degrees), reference and Delta-T
060329 474 0.07+ 0.16+    060330 474 0.07+ 0.16+    MPO 77680   +1.3 day

Orbital elements:
2002 WZ2                                                 Earth MOID = 0.1331 AU
Epoch 2006 Mar. 6.0 TT = JDT 2453800.5                  MPC
M 318.40394              (2000.0)            P               Q
n   0.25530519     Peri.   48.06519     +0.35988770     +0.52169743
a   2.4609132      Node   261.51293     -0.90062063     +0.41075631
e   0.8840341      Incl.   51.45059     +0.24364589     +0.74773728
P   3.86           H   17.0           G   0.15           U   2
Residuals in seconds of arc
021122 644  1.0-  0.0     021204 170  0.2+  0.4+    021212 413  0.1+  0.2-
021123 644  0.1-  0.1+    021204 170  0.2+  1.1-    021212 413  0.1+  0.2-
021123 644  0.2-  0.2+    021204 170  1.1-  0.8-    021212 413  0.0   0.1-
021123 644  0.1+  0.1+    021204 170  0.6+  0.7-    021212 413  0.1+  0.2-
021124 673  0.4+  0.3-    021205 704  0.4+  0.5-    021212 084  0.3+  0.0
021124 673  0.4+  0.2-    021205 704  0.3+  0.0     021215 170  0.3-  0.4-
021124 644  0.1-  0.1+    021205 704  0.2+  0.2-    021215 170  0.2+  0.3-
021124 673  0.4+  0.2-    021205 704 (0.9+  2.7-)   021215 170  0.4+  0.1+
021124 673  0.5+  0.1-    021205 704  0.2-  0.1+    021215 170  0.1-  0.2+
021124 673  0.4+  0.1-    021205 938  0.7+  0.7-    021215 170  0.5-  0.2-
021124 673  0.3+  0.1+    021205 938  0.4+  0.7+    021215 170  1.0-  0.8-
021124 644  0.2+  0.1+    021205 938  0.2-  0.4+    021216 084  0.9+  0.7+
021124 644  0.5+  0.3+    021205 938  0.4+  0.4+    021221 649  0.1-  0.1+
021125 649  0.3-  0.5-    021205 938  0.6-  0.1+    021221 649  0.3-  0.0
021125 649  0.1-  0.4-    021205 938  0.7-  0.7+    021221 649  0.0   0.1+
021125 649  0.6+  0.4-    021205 938  0.0   0.4-    021222 844  0.9-  0.7-
021125 649  0.2+  0.5-    021205 938  0.6+  0.3-    021222 844  0.1-  0.6-
021125 673  0.1-  0.4+    021205 938  1.2+  1.0-    021222 844  0.1-  0.5+
021125 673  0.0   0.1+    021205 938  0.4+  0.5-    021224 084  0.1-  0.4+
021125 673  0.3+  0.1+    021205 938  0.6+  1.0-    030101 704  1.0-  2.0-
021125 673  0.5-  0.1-    021205 938  0.7+  0.4+    030101 704  1.8-  1.6-
021125 673  0.0   0.2+    021205 938  0.2-  0.9-    030101 704  1.9-  0.6-
021125 673  0.3-  0.5+    021208 649  0.2-  0.1-    030101 704 (2.9-  0.4-)
021128 J95  0.0   1.1+    021208 649  0.1+  0.0     030102 704  0.0   0.2-
021128 J95  0.4-  0.1-    021208 649  0.1+  0.2-    030102 704  0.2+  0.3+
021128 649  0.2-  0.1-    021208 649  0.0   0.0     030102 704  0.2-  0.2+
021128 649  0.0   0.0     021210 118  0.1-  0.1-    030102 704  0.2-  0.1+
021128 649  0.0   0.1-    021210 118  0.0   0.1-    030102 704  0.3+  0.1+
021130 941  0.5+  0.4-    021210 118  0.2-  0.2-    030105 704  0.7+  0.1+
021130 941  1.0-  0.5-    021211 704  0.5+  0.8+    030105 704  1.1+  0.6+
021130 941  0.7-  0.2-    021211 704  0.8+  1.2+    030105 704  0.7+  0.2+
021130 941  0.8-  0.2-    021211 704  1.1+  1.0+    030105 704  0.7+  0.1-
021130 941  0.7-  0.1+    021212 704  0.2+  0.1+    030116 711  1.2-  0.9+
021130 213  0.2+  0.2+    021212 704  0.8+  0.2-    030116 711  0.7+  0.8+
021130 213  0.2+  0.2-    021212 704  0.3-  1.6+    030116 711  0.1-  0.6+
021130 213  0.4+  0.2+    021212 704  0.3+  0.3-    030126 644  0.5+  1.1+
021201 170  1.4-  1.0-    021212 670  0.2+  0.1-    030126 644  0.2+  0.9+
021201 170  1.2+  0.3+    021212 926  0.1-  0.3-    030126 644  0.6-  0.3+
021201 170  0.1+  1.2+    021212 926  0.9-  0.9-    060329 474  0.1-  0.1+
021201 649  0.0   0.0     021212 926  0.2-  0.0     060329 474  0.2+  0.1-
021201 649  0.2+  0.3+    021212 704  0.5-  0.9+    060329 474  0.2-  0.1-
021201 649  0.1-  0.1+    021212 670  0.4+  0.2-    060330 474  0.0   0.1-
021202 704  0.1-  0.2-    021212 413  0.1+  0.2-    060330 474  0.2+  0.3+
021202 704  0.2-  0.2-    021212 413  0.1+  0.2-    060330 474  0.3-  0.0
021202 704  0.6-  0.2-    021212 413  0.1+  0.2-    060330 474  0.2+  0.0

Ephemeris:
2002 WZ2                 a,e,i = 2.46, 0.88, 51                  q = 0.2854
Date    TT    R. A. (2000) Decl.     Delta      r     Elong.  Phase     V
2006 03 26    06 53.12   -41 29.5    1.997    2.350    97.8    24.9    21.5
2006 04 05    06 48.87   -38 25.3    1.970    2.247    92.4    26.4    21.4
2006 04 15    06 48.74   -35 20.6    1.944    2.139    86.9    27.9    21.3
2006 04 25    06 52.20   -32 21.9    1.916    2.026    81.3    29.4    21.2
2006 05 05    06 58.86   -29 33.6    1.884    1.908    75.9    30.8    21.1
2006 05 15    07 08.36   -26 57.8    1.843    1.784    70.6    32.3    21.0
2006 05 25    07 20.51   -24 34.7    1.792    1.653    65.5    33.9    20.8
2006 06 04    07 35.24   -22 23.0    1.727    1.515    60.7    35.7    20.6

Gareth V. Williams           (C) Copyright 2006 MPC           M.P.E.C. 2006-F55

Read MPEC 2006-F54 Read MPEC 2006-F56


Our Web policy. Index to the CBAT/MPC/ICQ pages.


Valid HTML 4.01!